Погода в Каржиманте

Россия / Пензенская область     52°46′48″N   45°31′56″E
темп.,
°C
ветер,
м/с
пор.,
м/с
влажн.,
%
обл.,
%
осадки,
мм/ч
давл.,
гПа
погр.,
м
26 октября, вт
вт2600:00−2сз237846 0.0 103146
03:00−3зсз34805 0.0 103184
06:00−3зюз36805 0.0 1031134
09:000зюз58615 0.0 1031380
12:00+4зюз68455 0.0 1029705
15:00+5зюз61046100 0.0 1028758
18:00+2зюз5125657 0.0 1028411
21:00+1зюз5126075 0.0 1028342
27 октября, ср
ср2700:00+1зюз51359100 0.0 1027332
03:00+1зюз51459100 0.0 1027345
06:00+1зюз5135791 0.0 1026342
09:00+3юз61449100 0.0 1025447
12:00+6зюз71236100 0.0 1023642
15:00+7юз7133462 0.0 1021765
18:00+5юз7153994 0.0 1020569
21:00+4юз7164131 0.0 1019560
28 октября, чт
чт2800:00+3юз7144299 0.0 1018466
03:00+4зюз61350100 0.0 1017541
06:00+4зюз51167100 0.0 1017382
09:00+5зюз597848 0.0 1018321
12:00+8зюз585991 0.0 1017993
15:00+9зюз5854100 0.0 10161447
18:00+7юз41070100 0.0 1016450
21:00+6юз61279100 0.3 1014647
29 октября, пт
пт2900:00+6зюз51191100 0.9 1013617
03:00+7зсз4995100 1.8 1014547
06:00+7ссз5990100 0.2 1016762
09:00+6с6108399 0.4 1020866
12:00+4с786459 0.1 1024929
15:00+3ссв68400 0.1 1027924
18:000ссв48580 0.0 1031452
21:00−2ссв36710 0.0 1033179
30 октября, сб
сб3000:00−3св22720 0.0 103445
03:00−3з116960 0.0 103510
06:00−3з236436 0.0 103566
09:000зюз365239 0.0 1035229
12:00+4з56355 0.0 1034416
15:00+5з48385 0.0 1034414
18:00+2зюз410525 0.0 1034182
21:00+2зюз3961100 0.0 1034171